Rbgn^[z[y[W
メイン
   新天体発見情報
     Comet P/2018 A4 (PANSTARRS)
投稿するにはまず登録を

スレッド表示 | 新しいものから 前のトピック | 次のトピック | 下へ
投稿者 スレッド
佐藤裕久
投稿日時: 2018-1-28 20:58
モデレータ
登録日: 2005-6-12
居住地: 日本
投稿: 2505
オンライン
Comet P/2018 A4 (PANSTARRS)

R. J. Wainscoatの通報によると、1月12日、Haleakala にある1.8-m Pan-STARRS1 Ritchey-Chretien
望遠鏡で得たCCD画像から他の彗星を発見した。
M. MicheliとR. J. Wainscoatの書込みによると、1月15.3日UT、Mauna Keaにある3.6-m Canada-France-
Hawaii Telescopeで得た3枚の60秒のgri-フィルターによるフォローアップCCD露出で、コマはFWHM
(半値全幅)がシーイング0".8で約1".0あり、かすかで、北東に幅広く伸びている。
小惑星センターのPCCP webpageに公表後佐藤英貴氏(東京都文京区, iTelescope天文台,1月13.08日UT、
60秒露出12枚のスタック, 0.51-m f/6.8 アストログラフ, Mayhill近郊, ニューメキシコ州, 
遠隔操作:強い集光のある6" のコマがあるが明らかな尾はない。4".9の円形範囲で測定したこの
彗星のw-バンド光度は19.7等であった)によって彗星状と観測された。

発見位置は次のとおり、

     2018 UT             R.A. (2000) Decl.       Mag.
     Jan. 12.28722    2 00 14.64   + 9 31 23.6   20.6
          12.29787    2 00 15.09   + 9 31 26.9   20.7
          12.30856    2 00 15.51   + 9 31 30.5   20.7
          12.31921    2 00 15.94   + 9 31 34.1   20.6

暫定楕円道要素と位置推算表は次のとおり、

Orbital elements:
    P/2018 A4 (PANSTARRS)
T 2018 May 21.38567 TT                                  MPCW
q   2.3922941            (2000.0)            P               Q
n   0.04107605     Peri.  355.99674     -0.07418201     -0.99578874
a   8.3191113      Node    98.25160     +0.91645908     -0.08937093
e   0.7124339      Incl.    3.12027     +0.39319178     +0.02043580
P  23.99
From 41 observations 2018 Jan. 12-16.

Ephemeris:
    P/2018 A4 (PANSTARRS)
Date    TT    R. A. (2000) Decl.     Delta      r     Elong.  Phase   m1
2017 12 18    01 50 15.1 +07 53 15   2.1290  2.7827   122.4    17.4  20.1
...
2018 01 02    01 54 22.0 +08 41 56   2.2419  2.7168   108.3    20.1  20.1
...
2018 01 10    01 58 43.9 +09 19 23   2.3094  2.6835   101.4    21.1  20.1
...
2018 01 16    02 02 56.9 +09 52 03   2.3620  2.6594    96.5    21.6  20.1
2018 01 17    02 03 43.6 +09 57 51   2.3709  2.6555    95.7    21.6  20.1
2018 01 18    02 04 31.6 +10 03 44   2.3798  2.6516    94.9    21.7  20.1
...
2018 01 24    02 09 45.7 +10 40 55   2.4337  2.6286    90.2    22.0  20.1
...
2018 02 01    02 17 50.9 +11 34 52   2.5059  2.5993    84.3    22.2  20.1
...
2018 02 16    02 36 06.4 +13 25 47   2.6396  2.5488    73.9    21.9  20.2

(CBET 4477、MPEC 2018-B19)

スレッド表示 | 新しいものから 前のトピック | 次のトピック | トップ

投稿するにはまず登録を
 
© 1999 Tsutomu Seki.